Location: Moscow
(38.8570°N, 84.2291°W)
Time: 15:45:43
(UTC+00:00)

CORIOLIS - Pass Details

Date: 15 November 2025
Orbit: 815 x 836 km, 98.7° (Epoch: 06 December)

Event Time Altitude Azimuth Distance (km) Brightness Sun altitude
Rises 23:12:05 0° 171° (S) 3,351 7.4 -9.8°
Reaches altitude 10° 23:14:27 10° 173° (S) 2,418 6.7 -10.3°
Maximum altitude 23:19:47 71° 258° (WSW) 870 4.5 -11.3°
Drops below altitude 10° 23:25:08 10° 342° (NNW) 2,421 6.6 -12.3°
Sets 23:27:30 0° 345° (NNW) 3,355 7.3 -12.7°
